This is the latest recevied weather packets stored in our database for station/object DL5TW-13. If no packets are shown the sender has not sent any weather packets the latest 10 day(s).
| Time | Temp. | Humidity | Pressure | Rain* | Wind** | Luminosity | Snow |
|---|---|---|---|---|---|---|---|
| 1777583615 | 5° C | 61% | 1024.3 hPa | 0 mm | - | - | - |
| 1777583315 | 5° C | 61% | 1024.3 hPa | 0 mm | - | - | - |
| 1777583014 | 5° C | 60% | 1024.4 hPa | 0 mm | - | - | - |
| 1777582714 | 5.56° C | 60% | 1024.5 hPa | 0 mm | - | - | - |
| 1777582414 | 5.56° C | 59% | 1024.5 hPa | 0 mm | - | - | - |
| 1777582114 | 5.56° C | 59% | 1024.5 hPa | 0 mm | - | - | - |
| 1777581813 | 6.11° C | 59% | 1024.3 hPa | 0 mm | - | - | - |
| 1777581513 | 6.11° C | 58% | 1024.4 hPa | 0 mm | - | - | - |
| 1777581213 | 6.11° C | 58% | 1024.6 hPa | 0 mm | - | - | - |
| 1777580912 | 6.11° C | 57% | 1024.5 hPa | 0 mm | - | - | - |
| 1777580612 | 6.67° C | 57% | 1024.3 hPa | 0 mm | - | - | - |
| 1777580312 | 6.67° C | 56% | 1024.4 hPa | 0 mm | - | - | - |
| 1777580011 | 6.67° C | 55% | 1024.4 hPa | 0 mm | - | - | - |
| 1777579711 | 7.22° C | 54% | 1024.3 hPa | 0 mm | - | - | - |
| 1777579411 | 7.22° C | 54% | 1024.2 hPa | 0 mm | - | - | - |
| 1777579111 | 7.78° C | 52% | 1024.2 hPa | 0 mm | - | - | - |
| 1777578810 | 7.78° C | 52% | 1024.4 hPa | 0 mm | - | - | - |
| 1777578510 | 7.78° C | 52% | 1024.2 hPa | 0 mm | - | - | - |
| 1777578210 | 8.33° C | 51% | 1024.3 hPa | 0 mm | - | - | - |
| 1777577910 | 8.33° C | 50% | 1024.2 hPa | 0 mm | - | - | - |
| 1777577609 | 8.89° C | 49% | 1024.1 hPa | 0 mm | - | - | - |
| 1777577309 | 8.89° C | 48% | 1023.9 hPa | 0 mm | - | - | - |
| 1777577009 | 8.89° C | 48% | 1023.9 hPa | 0 mm | - | - | - |
| 1777576708 | 9.44° C | 48% | 1024.1 hPa | 0 mm | - | - | - |
| 1777576408 | 9.44° C | 47% | 1024 hPa | 0 mm | - | - | - |
* Rain latest hour (hover to see other rain measurements)
** Current wind speed in m/s (hover to see current wind gust speed)